Flag for U.S.A. Weather past 2 weeks in Ontario, California, U.S.A.

Now
83 °F

Partly sunny.


Feels Like: 81 °F
Forecast: 67 / 86 °F
Wind: 8 mph from Southwest

Location: Ontario International Airport

Current Time: Sep 17, 2014 at 9:06:39 PM

Latest Report: Sep 17, 2014 at 7:53 PM


Visibility: 10 mi

Pressure: 29.70 "Hg

Humidity: 31%

Dew point: 49 °F

Location of OntarioLocation

Historic Weather in Ontario — Graph

°F

Ontario temperature yesterday

Maximum temperature yesterday: 107 °F (at 1:53 PM)
Minimum temperature yesterday: 79 °F (at 5:53 AM)
Average temperature yesterday: 91 °F

Past Weeks' High & Low Weather Summary

 TemperatureHumidityPressure
High107 °F (Sep 14, 2:53 PM)87% (Sep 3, 1:53 AM)29.90 "Hg (Sep 3, 1:53 AM)
Low63 °F (Sep 5, 5:53 AM)13% (Sep 13, 1:53 PM)29.62 "Hg (Sep 14, 2:53 PM)
Average83 °F43%29.76 "Hg
* Reported Sep 2 7:53 PM — Sep 17 7:53 PM, Ontario, Weather by CustomWeather, © 2014

Note: Actual official high and low records may vary slightly from our data, if they occured in-between our weather recording intervals... More about our weather records

Advertising

Ontario weather history for previous 24 hours

 ConditionsComfort  
Time TempWeatherWind HumidityBarometerVisibility
7:53 PM
Sep 17
83 °FPartly sunny.8 mph31%29.70 "Hg10 mi
6:53 PM88 °FPassing clouds.12 mph27%29.67 "Hg10 mi
5:53 PM91 °FPassing clouds.15 mph30%29.65 "Hg10 mi
4:53 PM94 °FScattered clouds.17 mph29%29.63 "Hg10 mi
3:53 PM97 °FScattered clouds.13 mph27%29.64 "Hg10 mi
2:53 PM98 °FPassing clouds.16 mph27%29.65 "Hg10 mi
1:53 PM99 °FPassing clouds.16 mph28%29.65 "Hg10 mi
12:53 PM100 °FPassing clouds.13 mph27%29.67 "Hg10 mi
11:53 AM97 °FPassing clouds.9 mph30%29.69 "Hg10 mi
10:53 AM94 °FPassing clouds.6 mph36%29.71 "Hg10 mi
9:53 AM91 °FPassing clouds.5 mph39%29.72 "Hg10 mi
8:53 AM88 °FPassing clouds.No wind46%29.72 "Hg10 mi
7:53 AM84 °FSunny.No wind55%29.72 "Hg10 mi
6:53 AM82 °FClear.No wind58%29.70 "Hg10 mi
5:53 AM82 °FClear.No wind55%29.69 "Hg10 mi
4:53 AM82 °FClear.No wind58%29.69 "Hg10 mi
3:53 AM82 °FClear.3 mph58%29.68 "Hg10 mi
2:53 AM85 °FClear.No wind51%29.68 "Hg10 mi
1:53 AM87 °FPassing clouds.No wind46%29.69 "Hg10 mi
12:53 AM87 °FPassing clouds.No wind42%29.70 "Hg10 mi
11:53 PM
Sep 16
88 °FPassing clouds.3 mph40%29.70 "Hg10 mi
10:53 PM89 °FPassing clouds.No wind36%29.70 "Hg10 mi
9:53 PM89 °FPassing clouds.No wind36%29.70 "Hg10 mi
Weather by CustomWeather, © 2014

See weather overviewHow to use our weather pages